[[{"header":{"parameterUnit":"m.s-1","parameterCategory":1,"la1":30.2991,"la2":30.254,"lo1":-89.0895,"lo2":-89.0444,"dy":0.0017,"dx":0.0017,"nx":28,"ny":28,"refTime":"2024-12-04T03:00:00:Z","depth":0,"parameterNumber":2,"parameterNumberName":"U-component_of_WINDS"},"data":[0,0,0,0,0,0,0,0,0,0,0,0,0,0,0,0,0,0,0,0,0,0,0,0,0,0,0,0,0,0,0,0,0,0,0,0,0,0,0,0,0,0,0,0,0,0,0,0,0,0,0,0,0,0,0,0,0,0,-4.8476,-4.8477,0,-4.8552,-4.8553,-4.8554,-4.8446,-4.8442,-4.8438,-4.8434,-4.851,-4.8515,-4.8521,0,0,0,0,0,0,0,0,0,0,0,0,0,-4.8235,-4.824,-4.8476,-4.8477,-4.8478,-4.8552,-4.8553,-4.8554,-4.8446,-4.8442,-4.8437,-4.8433,-4.8508,-4.8515,-4.8521,0,0,0,0,0,0,0,0,0,0,0,0,0,-4.8328,-4.8241,-4.8476,-4.8433,-4.843,-4.8552,-4.8553,-4.8555,-4.8447,-4.8441,-4.8436,-4.843,-4.8506,-4.8514,-4.8522,-4.8689,0,0,-4.8548,-4.8552,0,0,0,0,0,0,0,0,-4.8323,-4.8337,-4.8439,-4.8437,-4.8433,-4.8484,-4.8496,-4.86,-4.8449,-4.8441,-4.8434,-4.8428,-4.8506,-4.8514,-4.8541,-4.8693,-4.8696,-4.8549,-4.8554,-4.8557,-4.856,0,0,0,0,0,0,0,-4.8317,-4.8333,-4.8506,-4.844,-4.8437,-4.8409,-4.8416,-4.8515,-4.8504,-4.8441,-4.8433,-4.8444,-4.8503,-4.8533,-4.8542,-4.8697,-4.8548,-4.8556,-4.8561,-4.8564,-4.8987,-4.8993,0,0,0,0,0,0,-4.8316,-4.8329,-4.8504,-4.8509,-4.8363,-4.8418,-4.8426,-4.8473,-4.8503,-4.8502,-4.8449,-4.8439,-4.8521,-4.8532,-4.8544,-4.8738,-4.8557,-4.8565,-4.857,-4.898,-4.8988,-4.8995,0,0,0,0,0,0,-4.8311,-4.8332,-4.8501,-4.8417,-4.8436,-4.8429,-4.8483,-4.8478,-4.8507,-4.8509,-4.8506,-4.8481,-4.8517,-4.8532,-4.8653,-4.8739,-4.8569,-4.8577,-4.8973,-4.8983,-4.8991,-4.913,0,0,0,0,0,0,-4.8304,-4.8331,-4.8395,-4.8419,-4.8441,-4.861,-4.8488,-4.8483,-4.8522,-4.851,-4.8539,-4.8538,-4.8514,-4.8641,-4.8662,-4.8748,-4.8583,-4.8965,-4.8977,-4.8988,-4.9118,-4.9143,-4.9165,0,0,0,0,0,-4.8296,-4.8431,-4.8399,-4.8421,-4.8521,-4.8615,-4.8628,-4.8598,-4.853,-4.8593,-4.8594,-4.8537,-4.8728,-4.8655,-4.8677,-4.8767,-4.896,-4.8974,-4.8988,-4.9107,-4.9138,-4.9164,0,0,0,0,0,0,-4.8418,-4.8434,-4.8398,-4.8545,-4.858,-4.8597,-4.8676,-4.8632,-4.8686,-4.8672,-4.8632,-4.864,-4.8769,-4.878,-4.8699,-4.8928,-4.8832,-4.8851,-4.8915,-4.8945,-4.8968,-4.8961,-4.859,0,0,0,0,0,-4.8462,-4.8538,-4.8548,-4.8677,-4.8696,-4.8684,-4.8724,-4.8698,-4.8732,-4.8746,-4.8755,-4.879,-4.8857,-4.8902,-4.8964,-4.912,-4.9123,-4.9193,-4.9216,-4.9235,-4.9251,-4.9331,-4.9361,-4.904,-4.904,-4.904,0,0,-4.8553,-4.8571,-4.8622,-4.8702,-4.8725,-4.8804,-4.8696,-4.8785,-4.8842,-4.8759,-4.8873,-4.8882,-4.8917,-4.9056,-4.9118,-4.9069,-4.9341,-4.9253,-4.9268,-4.9274,-4.9349,-4.9379,-4.9406,-4.905,-4.9048,-4.9047,0,0,-4.8759,-4.8782,-4.889,-4.8916,-4.8954,-4.8944,-4.8971,-4.8995,-4.8997,-4.9112,-4.905,-4.9118,-4.9236,-4.9263,-4.9292,-4.9508,-4.9456,-4.953,-4.9651,-4.973,-4.9755,-4.9777,-4.9851,-4.9878,-4.9546,-4.9547,-4.9547,0,-4.8867,-4.8983,-4.8951,-4.9043,-4.9079,-4.9009,-4.9117,-4.9144,-4.92,-4.9225,-4.9171,-4.9316,-4.9335,-4.9478,-4.953,-4.9558,-4.9584,-4.9525,-4.9754,-4.9776,-4.9796,-4.9866,-4.9894,-4.9555,-4.9554,-4.9553,-4.9553,0,-4.9113,-4.9195,-4.9278,-4.9334,-4.9379,-4.9479,-4.9461,-4.9511,-4.9481,-4.9478,-4.9594,-4.9615,-4.9679,-4.9712,-4.9684,-4.985,-4.9818,-4.9761,-4.9662,-4.9835,-4.99,-4.9927,-4.9567,-4.9564,-4.9562,-4.956,0,0,-4.9395,-4.9432,-4.9463,-4.9486,-4.9522,-4.9584,-4.9681,-4.9744,-4.9786,-4.9828,-4.9905,-5.0007,-4.9952,-4.9986,-4.9961,-5.0031,-5.0196,-4.9963,-4.9963,-5.0003,-5.0377,-5.0418,-5.0449,-5.0164,-5.0169,-5.0173,-5.0373,0,-4.9598,-4.9764,-4.9737,-4.9898,-4.9971,-4.9906,-4.9989,-5.002,-5.0019,-5.0081,-5.008,-5.0151,-5.0076,-5.0095,-5.0162,-5.0162,-5.027,-5.0148,-5.0233,-5.0237,-5.0223,-5.0484,-5.0528,-5.0715,-5.0398,-5.0403,-5.0406,0,-4.9856,-4.9906,-5.0074,-5.0096,-5.0126,-5.0202,-5.0256,-5.0317,-5.035,-5.0345,-5.0383,-5.0345,-5.0439,-5.0342,-5.0471,-5.0388,-5.0422,-5.0428,-5.0434,-5.0437,-5.0329,-5.0491,-5.0774,-5.0801,-5.0446,-5.0443,-5.044,0,-5.004,-5.015,-5.0264,-5.0286,-5.0317,-5.0371,-5.0387,-5.0414,-5.0453,-5.0501,-5.0526,-5.0585,-5.0616,-5.0662,-5.064,-5.0573,-5.0772,-5.0674,-5.0767,-5.0768,-5.0809,-5.0806,-5.1098,-5.0838,-5.0837,-5.0837,-5.0836,0,-5.0266,-5.0371,-5.0346,-5.0416,-5.053,-5.0499,-5.0613,-5.062,-5.0645,-5.0714,-5.0662,-5.0728,-5.0697,-5.076,-5.0744,-5.0851,-5.0866,-5.0863,-5.0856,-5.0865,-5.0865,-5.0884,-5.0869,-5.0844,-5.0843,-5.0841,-5.084,0,-5.049,-5.0479,-5.0597,-5.0617,-5.0625,-5.0708,-5.0723,-5.0788,-5.0784,-5.0871,-5.089,-5.0883,-5.0955,-5.0939,-5.1017,-5.1006,-5.114,-5.1119,-5.1128,-5.1122,-5.1215,-5.1205,-5.1525,-5.1564,-5.1283,-5.1286,-5.1288,0,-5.0633,-5.0712,-5.074,-5.0782,-5.0801,-5.0871,-5.091,-5.0883,-5.0926,-5.0969,-5.1028,-5.1095,-5.1147,-5.1264,-5.1265,-5.1325,-5.1303,-5.1411,-5.1311,-5.1317,-5.13,-5.1294,-5.13,-5.143,-5.1433,-5.1436,-5.1438,0,-5.0888,-5.0878,-5.0937,-5.0995,-5.1043,-5.1087,-5.1126,-5.1164,-5.1139,-5.119,-5.1263,-5.1303,-5.1383,-5.1449,-5.1504,-5.1518,-5.1473,-5.147,-5.1494,-5.1501,-5.1502,-5.1499,-5.1178,-5.1462,-5.1459,-5.1457,-5.1456,-5.1455,-5.1073,-5.1139,-5.1168,-5.1235,-5.1262,-5.1299,-5.1359,-5.1363,-5.1423,-5.1486,-5.1467,-5.1548,-5.1578,-5.1647,-5.1669,-5.1731,-5.169,-5.1726,-5.1734,-5.1743,-5.1752,-5.1496,-5.1742,-5.1741,-5.174,-5.174,-5.1739,0,-5.1321,-5.1337,-5.14,-5.1455,-5.1508,-5.1463,-5.1503,-5.155,-5.1622,-5.1655,-5.1706,-5.1789,-5.1853,-5.186,-5.192,-5.1968,-5.1949,-5.1985,-5.1979,-5.1982,-5.1787,-5.1759,-5.1999,-5.1999,-5.1999,-5.1999,-5.1999,-5.1999,-5.1456,-5.1564,-5.1558,-5.1677,-5.1692,-5.1772,-5.1799,-5.1832,-5.1857,-5.1951,-5.2004,-5.2009,-5.203,-5.2091,-5.2147,-5.2148,-5.217,-5.2213,-5.2205,-5.2022,-5.1996,-5.1971,-5.1944,-5.2219,-5.222,-5.2394,-5.2396,-5.2397]},{"header":{"parameterUnit":"m.s-1","parameterCategory":1,"la1":30.2991,"la2":30.254,"lo1":-89.0895,"lo2":-89.0444,"dy":0.0017,"dx":0.0017,"nx":28,"ny":28,"refTime":"2024-12-04T03:00:00:Z","depth":0,"parameterNumber":3,"parameterNumberName":"V-component_of_WINDS"},"data":[0,0,0,0,0,0,0,0,0,0,0,0,0,0,0,0,0,0,0,0,0,0,0,0,0,0,0,0,0,0,0,0,0,0,0,0,0,0,0,0,0,0,0,0,0,0,0,0,0,0,0,0,0,0,0,0,0,0,0.7018,0.7017,0,0.6997,0.6997,0.6997,0.694,0.6939,0.6938,0.6936,0.6917,0.6918,0.6919,0,0,0,0,0,0,0,0,0,0,0,0,0,0.7009,0.701,0.7018,0.7017,0.7017,0.6997,0.6997,0.6997,0.694,0.6939,0.6937,0.6936,0.6917,0.6918,0.6919,0,0,0,0,0,0,0,0,0,0,0,0,0,0.7004,0.701,0.7018,0.6986,0.6983,0.6997,0.6997,0.6997,0.6941,0.6939,0.6937,0.6935,0.6917,0.6918,0.6919,0.6962,0,0,0.6922,0.6922,0,0,0,0,0,0,0,0,0.7004,0.7004,0.6991,0.6989,0.6985,0.6969,0.6987,0.6985,0.6941,0.6957,0.6936,0.6934,0.6936,0.6936,0.6936,0.6961,0.696,0.6922,0.6922,0.6923,0.6923,0,0,0,0,0,0,0,0.7004,0.7004,0.701,0.6991,0.6988,0.6974,0.6971,0.6987,0.6957,0.6955,0.6951,0.695,0.6934,0.6935,0.6935,0.696,0.6922,0.6923,0.6923,0.6924,0.702,0.7022,0,0,0,0,0,0,0.7009,0.7005,0.701,0.7009,0.699,0.6976,0.6973,0.6976,0.6957,0.6952,0.6951,0.6947,0.6934,0.6934,0.6934,0.6983,0.6923,0.6924,0.6924,0.7018,0.702,0.7022,0,0,0,0,0,0,0.7009,0.701,0.7011,0.7006,0.7005,0.6978,0.6983,0.6977,0.6978,0.6954,0.6948,0.6957,0.6933,0.6933,0.6955,0.6982,0.6924,0.6925,0.7016,0.7019,0.7021,0.7082,0,0,0,0,0,0,0.7009,0.701,0.7026,0.7007,0.7006,0.7032,0.6984,0.6978,0.6979,0.6974,0.6958,0.6954,0.6931,0.6954,0.6956,0.6982,0.6926,0.7013,0.7017,0.702,0.7077,0.7087,0.7094,0,0,0,0,0,0.7009,0.7044,0.7027,0.7028,0.7024,0.7034,0.7033,0.7006,0.6982,0.6997,0.6982,0.6954,0.6979,0.6957,0.6959,0.6985,0.7011,0.7016,0.702,0.7074,0.7085,0.7094,0,0,0,0,0,0,0.7067,0.7041,0.7022,0.7051,0.7045,0.7024,0.7043,0.7019,0.702,0.7015,0.6982,0.6979,0.7007,0.6998,0.6975,0.7026,0.699,0.6996,0.703,0.7041,0.7049,0.705,0.6927,0,0,0,0,0,0.7084,0.7093,0.707,0.7098,0.7096,0.707,0.7074,0.7054,0.7046,0.7043,0.703,0.7024,0.703,0.7035,0.704,0.7076,0.7072,0.7096,0.7104,0.7111,0.7116,0.7135,0.7145,0.7037,0.7037,0.7037,0,0,0.7117,0.7104,0.7112,0.711,0.7102,0.7114,0.7069,0.7082,0.709,0.7045,0.7066,0.7056,0.7047,0.7077,0.709,0.7071,0.7145,0.7117,0.7123,0.7123,0.714,0.7151,0.716,0.704,0.7039,0.7039,0,0,0.7184,0.7175,0.7198,0.7192,0.7182,0.7164,0.717,0.7153,0.7144,0.7164,0.7131,0.7141,0.7153,0.7148,0.7147,0.7214,0.7188,0.7216,0.7261,0.7279,0.7288,0.7295,0.7319,0.7328,0.7221,0.7221,0.7221,0,0.7228,0.7242,0.7213,0.7229,0.7229,0.7189,0.7212,0.7208,0.72,0.7201,0.7181,0.7195,0.7186,0.7215,0.7231,0.7232,0.7238,0.7218,0.7289,0.7296,0.7303,0.7325,0.7334,0.7225,0.7224,0.7224,0.7224,0,0.7296,0.7307,0.7327,0.732,0.7322,0.7342,0.7316,0.7322,0.7303,0.7288,0.7309,0.7298,0.73,0.7305,0.7286,0.7331,0.732,0.7295,0.7258,0.7317,0.7337,0.7345,0.723,0.7229,0.7227,0.7227,0,0,0.7398,0.7375,0.7383,0.738,0.7366,0.7374,0.7392,0.7393,0.7399,0.7396,0.741,0.7422,0.7399,0.7398,0.7378,0.7395,0.7449,0.7368,0.7367,0.7383,0.7498,0.7516,0.7526,0.7432,0.7433,0.7435,0.7498,0,0.7461,0.749,0.7465,0.7499,0.7509,0.7472,0.7487,0.7481,0.7468,0.7476,0.7462,0.747,0.7439,0.7438,0.7453,0.7439,0.7471,0.7434,0.7445,0.7446,0.7448,0.7537,0.7556,0.7617,0.7506,0.7507,0.7508,0,0.7538,0.7538,0.7573,0.7557,0.756,0.7575,0.7574,0.7582,0.7574,0.7564,0.7564,0.7539,0.7557,0.7522,0.7546,0.7521,0.7524,0.7518,0.752,0.7519,0.748,0.7539,0.7636,0.7645,0.7521,0.752,0.7519,0,0.7609,0.7617,0.7639,0.7638,0.762,0.7631,0.7625,0.7615,0.7618,0.7618,0.7619,0.7622,0.7623,0.7626,0.7603,0.758,0.763,0.7593,0.7622,0.7623,0.7634,0.7633,0.7732,0.7637,0.7637,0.7637,0.7637,0,0.7682,0.7705,0.7671,0.7684,0.7709,0.768,0.7706,0.7695,0.7688,0.7699,0.7668,0.7679,0.7649,0.7657,0.764,0.7663,0.7664,0.7656,0.7651,0.7658,0.7659,0.766,0.7655,0.7639,0.7639,0.7638,0.7638,0,0.7765,0.7743,0.7764,0.7746,0.7742,0.7761,0.7746,0.7758,0.7744,0.7758,0.776,0.7738,0.7746,0.7724,0.7729,0.7718,0.775,0.7739,0.7752,0.7749,0.7779,0.7777,0.7881,0.7894,0.7791,0.7792,0.7793,0,0.7812,0.7829,0.7812,0.7817,0.7812,0.7821,0.7824,0.7797,0.7801,0.7794,0.7807,0.7813,0.7816,0.7832,0.7816,0.782,0.7808,0.7845,0.7809,0.7816,0.7808,0.7807,0.7809,0.7852,0.7853,0.7854,0.7855,0,0.7899,0.7887,0.7892,0.7893,0.7897,0.7896,0.7894,0.79,0.7871,0.7878,0.7886,0.7888,0.7894,0.79,0.7901,0.7895,0.7871,0.7867,0.7874,0.7881,0.7888,0.7885,0.7772,0.7864,0.7863,0.7863,0.7862,0.7862,0.7965,0.7978,0.7969,0.7975,0.797,0.7969,0.7979,0.7966,0.7972,0.7974,0.7958,0.797,0.7963,0.7961,0.7958,0.7967,0.795,0.7961,0.7963,0.7966,0.7971,0.7888,0.7967,0.7967,0.7967,0.7966,0.7966,0,0.8049,0.8042,0.8048,0.8045,0.8051,0.8027,0.8024,0.803,0.804,0.8035,0.8039,0.8049,0.8055,0.8041,0.8045,0.8055,0.8044,0.8057,0.8055,0.8055,0.7985,0.7979,0.8066,0.8066,0.8066,0.8066,0.8066,0.8066,0.8094,0.8115,0.8103,0.8122,0.8114,0.8124,0.8124,0.8123,0.8119,0.8131,0.8136,0.8127,0.8118,0.8121,0.8126,0.8122,0.8125,0.8142,0.8133,0.8069,0.8059,0.805,0.8044,0.8143,0.8143,0.8202,0.8202,0.8203]}]]